Time,TemperatureF,DewpointF,PressureIn,WindDirection,WindDirectionDegrees,WindSpeedMPH,WindSpeedGustMPH,Humidity,HourlyPrecipIn,Conditions,Clouds,dailyrainin,SoftwareType,DateUTC
2012-02-10 00:09:00,47.6,24.0,30.18,NNE,18,3.0,4.0,40,0.00,,,0.00,weatherlink.com 1.10,2012-02-10 08:09:00,
2012-02-10 00:24:00,49.1,24.0,30.18,NNE,23,3.0,4.0,37,0.00,,,0.00,weatherlink.com 1.10,2012-02-10 08:24:00,
2012-02-10 00:39:00,47.3,22.0,30.18,NNE,23,3.0,4.0,37,0.00,,,0.00,weatherlink.com 1.10,2012-02-10 08:39:00,
2012-02-10 00:54:00,49.8,20.0,30.17,NNE,13,4.0,6.0,31,0.00,,,0.00,weatherlink.com 1.10,2012-02-10 08:54:00,
2012-02-10 01:09:00,48.7,20.0,30.17,NNE,22,2.0,4.0,32,0.00,,,0.00,weatherlink.com 1.10,2012-02-10 09:09:00,
2012-02-10 01:24:00,48.8,21.0,30.17,North,1,3.0,4.0,33,0.00,,,0.00,weatherlink.com 1.10,2012-02-10 09:24:00,
2012-02-10 01:39:00,48.9,22.0,30.17,North,5,2.0,2.0,35,0.00,,,0.00,weatherlink.com 1.10,2012-02-10 09:39:00,
2012-02-10 01:54:00,48.4,24.0,30.17,WNW,295,0.0,2.0,39,0.00,,,0.00,weatherlink.com 1.10,2012-02-10 09:54:00,
2012-02-10 02:09:00,48.8,21.0,30.17,NNE,26,0.0,2.0,34,0.00,,,0.00,weatherlink.com 1.10,2012-02-10 10:09:00,
2012-02-10 02:24:00,48.4,21.0,30.16,North,5,0.0,1.0,34,0.00,,,0.00,weatherlink.com 1.10,2012-02-10 10:24:00,
2012-02-10 02:39:00,53.0,17.0,30.15,NNW,330,3.0,7.0,24,0.00,,,0.00,weatherlink.com 1.10,2012-02-10 10:39:00,
2012-02-10 02:54:00,53.0,17.0,30.14,NNE,19,2.0,4.0,24,0.00,,,0.00,weatherlink.com 1.10,2012-02-10 10:54:00,
2012-02-10 03:09:00,47.9,18.0,30.15,NNE,26,3.0,3.0,31,0.00,,,0.00,weatherlink.com 1.10,2012-02-10 11:09:00,
2012-02-10 03:25:00,46.7,18.0,30.15,NNE,22,2.0,4.0,32,0.00,,,0.00,weatherlink.com 1.10,2012-02-10 11:25:00,
2012-02-10 03:40:00,43.5,19.0,30.15,NNE,29,1.0,3.0,38,0.00,,,0.00,weatherlink.com 1.10,2012-02-10 11:40:00,
2012-02-10 03:55:00,43.3,19.0,30.16,NNE,30,1.0,3.0,38,0.00,,,0.00,weatherlink.com 1.10,2012-02-10 11:55:00,
2012-02-10 04:10:00,46.1,18.0,30.15,NNE,22,2.0,3.0,32,0.00,,,0.00,weatherlink.com 1.10,2012-02-10 12:10:00,
2012-02-10 04:25:00,46.5,21.0,30.16,NNE,16,3.0,4.0,37,0.00,,,0.00,weatherlink.com 1.10,2012-02-10 12:25:00,
2012-02-10 04:40:00,44.7,23.0,30.16,NNE,19,2.0,2.0,42,0.00,,,0.00,weatherlink.com 1.10,2012-02-10 12:40:00,
2012-02-10 04:55:00,46.0,23.0,30.16,NNE,12,2.0,3.0,41,0.00,,,0.00,weatherlink.com 1.10,2012-02-10 12:55:00,
2012-02-10 05:10:00,46.5,24.0,30.15,NNE,20,2.0,2.0,41,0.00,,,0.00,weatherlink.com 1.10,2012-02-10 13:10:00,
2012-02-10 05:25:00,46.5,24.0,30.15,NNE,22,2.0,3.0,42,0.00,,,0.00,weatherlink.com 1.10,2012-02-10 13:25:00,
2012-02-10 05:40:00,45.5,23.0,30.15,NNE,22,3.0,3.0,41,0.00,,,0.00,weatherlink.com 1.10,2012-02-10 13:40:00,
2012-02-10 05:55:00,45.0,20.0,30.15,NNE,27,4.0,5.0,37,0.00,,,0.00,weatherlink.com 1.10,2012-02-10 13:55:00,
2012-02-10 06:10:00,44.6,18.0,30.15,NNE,26,4.0,4.0,35,0.00,,,0.00,weatherlink.com 1.10,2012-02-10 14:10:00,
2012-02-10 06:25:00,45.5,18.0,30.15,NNE,25,3.0,5.0,34,0.00,,,0.00,weatherlink.com 1.10,2012-02-10 14:25:00,
2012-02-10 06:40:00,43.3,19.0,30.16,NNE,26,2.0,3.0,38,0.00,,,0.00,weatherlink.com 1.10,2012-02-10 14:40:00,
2012-02-10 06:55:00,41.9,19.0,30.17,NNE,20,1.0,2.0,40,0.00,,,0.00,weatherlink.com 1.10,2012-02-10 14:55:00,
2012-02-10 07:10:00,40.8,20.0,30.17,NNE,27,1.0,3.0,44,0.00,,,0.00,weatherlink.com 1.10,2012-02-10 15:10:00,
2012-02-10 07:26:00,41.8,22.0,30.18,NNE,20,3.0,3.0,45,0.00,,,0.00,weatherlink.com 1.10,2012-02-10 15:26:00,
2012-02-10 07:55:00,49.1,24.0,30.18,NNE,18,1.0,2.0,37,0.00,,,0.00,weatherlink.com 1.10,2012-02-10 15:55:00,
2012-02-10 08:10:00,51.5,27.0,30.18,North,356,1.0,2.0,39,0.00,,,0.00,weatherlink.com 1.10,2012-02-10 16:10:00,
2012-02-10 08:25:00,52.4,27.0,30.19,North,1,0.0,1.0,37,0.00,,,0.00,weatherlink.com 1.10,2012-02-10 16:25:00,
2012-02-10 08:40:00,53.1,25.0,30.19,NW,315,0.0,0.0,33,0.00,,,0.00,weatherlink.com 1.10,2012-02-10 16:40:00,
2012-02-10 08:56:00,54.7,28.0,30.18,SW,228,0.0,1.0,36,0.00,,,0.00,weatherlink.com 1.10,2012-02-10 16:56:00,
2012-02-10 09:11:00,55.2,29.0,30.19,SSW,211,2.0,3.0,37,0.00,,,0.00,weatherlink.com 1.10,2012-02-10 17:11:00,
2012-02-10 09:26:00,56.3,28.0,30.19,WSW,257,1.0,3.0,34,0.00,,,0.00,weatherlink.com 1.10,2012-02-10 17:26:00,
2012-02-10 09:41:00,57.3,29.0,30.19,WSW,241,0.0,2.0,34,0.00,,,0.00,weatherlink.com 1.10,2012-02-10 17:41:00,
2012-02-10 09:56:00,57.7,31.0,30.19,SSE,158,0.0,2.0,36,0.00,,,0.00,weatherlink.com 1.10,2012-02-10 17:56:00,
2012-02-10 10:11:00,59.6,25.0,30.19,WSW,239,1.0,5.0,27,0.00,,,0.00,weatherlink.com 1.10,2012-02-10 18:11:00,
2012-02-10 10:26:00,60.2,26.0,30.19,NW,317,0.0,5.0,27,0.00,,,0.00,weatherlink.com 1.10,2012-02-10 18:26:00,
2012-02-10 10:41:00,61.3,24.0,30.19,SSW,207,1.0,5.0,24,0.00,,,0.00,weatherlink.com 1.10,2012-02-10 18:41:00,
2012-02-10 10:56:00,61.7,24.0,30.18,SW,222,1.0,4.0,24,0.00,,,0.00,weatherlink.com 1.10,2012-02-10 18:56:00,
2012-02-10 11:11:00,62.1,23.0,30.18,WSW,245,2.0,4.0,22,0.00,,,0.00,weatherlink.com 1.10,2012-02-10 19:11:00,
2012-02-10 11:26:00,63.0,24.0,30.18,WSW,239,1.0,4.0,23,0.00,,,0.00,weatherlink.com 1.10,2012-02-10 19:26:00,
2012-02-10 11:41:00,63.8,24.0,30.17,WSW,240,1.0,6.0,22,0.00,,,0.00,weatherlink.com 1.10,2012-02-10 19:41:00,
2012-02-10 11:56:00,64.1,27.0,30.17,South,184,2.0,6.0,25,0.00,,,0.00,weatherlink.com 1.10,2012-02-10 19:56:00,
2012-02-10 12:11:00,64.2,27.0,30.16,WSW,243,2.0,5.0,24,0.00,,,0.00,weatherlink.com 1.10,2012-02-10 20:11:00,
2012-02-10 12:26:00,64.2,29.0,30.16,SSW,210,3.0,5.0,27,0.00,,,0.00,weatherlink.com 1.10,2012-02-10 20:26:00,
2012-02-10 12:41:00,64.2,28.0,30.14,WSW,240,1.0,6.0,25,0.00,,,0.00,weatherlink.com 1.10,2012-02-10 20:41:00,
2012-02-10 12:56:00,64.2,28.0,30.14,SW,232,3.0,5.0,25,0.00,,,0.00,weatherlink.com 1.10,2012-02-10 20:56:00,
2012-02-10 13:11:00,64.3,29.0,30.13,SW,230,1.0,4.0,26,0.00,,,0.00,weatherlink.com 1.10,2012-02-10 21:11:00,
2012-02-10 13:26:00,63.5,29.0,30.13,WSW,238,1.0,4.0,27,0.00,,,0.00,weatherlink.com 1.10,2012-02-10 21:26:00,
2012-02-10 13:41:00,63.5,27.0,30.12,WSW,253,1.0,5.0,25,0.00,,,0.00,weatherlink.com 1.10,2012-02-10 21:41:00,
2012-02-10 13:56:00,63.2,29.0,30.11,SW,232,1.0,3.0,27,0.00,,,0.00,weatherlink.com 1.10,2012-02-10 21:56:00,
2012-02-10 14:11:00,63.1,26.0,30.10,SW,229,2.0,3.0,24,0.00,,,0.00,weatherlink.com 1.10,2012-02-10 22:11:00,
2012-02-10 14:26:00,62.9,26.0,30.09,SW,231,2.0,3.0,25,0.00,,,0.00,weatherlink.com 1.10,2012-02-10 22:26:00,
2012-02-10 14:41:00,63.2,27.0,30.09,SW,229,1.0,4.0,25,0.00,,,0.00,weatherlink.com 1.10,2012-02-10 22:41:00,
2012-02-10 14:56:00,63.5,25.0,30.09,SW,226,0.0,3.0,23,0.00,,,0.00,weatherlink.com 1.10,2012-02-10 22:56:00,
2012-02-10 15:11:00,62.7,26.0,30.08,WNW,282,0.0,3.0,25,0.00,,,0.00,weatherlink.com 1.10,2012-02-10 23:11:00,
2012-02-10 15:26:00,61.9,26.0,30.08,SW,222,1.0,4.0,26,0.00,,,0.00,weatherlink.com 1.10,2012-02-10 23:26:00,
2012-02-10 15:41:00,61.9,26.0,30.08,WSW,253,1.0,3.0,26,0.00,,,0.00,weatherlink.com 1.10,2012-02-10 23:41:00,
2012-02-10 15:56:00,60.4,28.0,30.09,WSW,248,2.0,5.0,29,0.00,,,0.00,weatherlink.com 1.10,2012-02-10 23:56:00,
2012-02-10 16:11:00,59.2,29.0,30.09,WSW,248,2.0,5.0,32,0.00,,,0.00,weatherlink.com 1.10,2012-02-11 00:11:00,
2012-02-10 16:26:00,58.0,29.0,30.08,SW,228,1.0,4.0,33,0.00,,,0.00,weatherlink.com 1.10,2012-02-11 00:26:00,
2012-02-10 16:41:00,56.8,29.0,30.07,WSW,242,0.0,2.0,35,0.00,,,0.00,weatherlink.com 1.10,2012-02-11 00:41:00,
2012-02-10 16:56:00,55.0,30.0,30.06,West,267,0.0,1.0,38,0.00,,,0.00,weatherlink.com 1.10,2012-02-11 00:56:00,
2012-02-10 17:11:00,53.3,29.0,30.06,West,264,0.0,1.0,40,0.00,,,0.00,weatherlink.com 1.10,2012-02-11 01:11:00,
2012-02-10 17:26:00,51.8,30.0,30.07,NE,38,0.0,1.0,43,0.00,,,0.00,weatherlink.com 1.10,2012-02-11 01:26:00,
2012-02-10 17:41:00,50.8,30.0,30.07,NNE,16,1.0,1.0,45,0.00,,,0.00,weatherlink.com 1.10,2012-02-11 01:41:00,
2012-02-10 17:56:00,49.8,29.0,30.06,NNE,20,2.0,2.0,45,0.00,,,0.00,weatherlink.com 1.10,2012-02-11 01:56:00,
2012-02-10 18:12:00,48.1,29.0,30.06,NNE,22,0.0,2.0,47,0.00,,,0.00,weatherlink.com 1.10,2012-02-11 02:12:00,
2012-02-10 18:27:00,47.9,29.0,30.07,NNW,340,1.0,2.0,48,0.00,,,0.00,weatherlink.com 1.10,2012-02-11 02:27:00,
2012-02-10 18:42:00,47.7,31.0,30.07,North,8,0.0,2.0,52,0.00,,,0.00,weatherlink.com 1.10,2012-02-11 02:42:00,
2012-02-10 18:57:00,47.5,32.0,30.07,NNW,345,0.0,3.0,55,0.00,,,0.00,weatherlink.com 1.10,2012-02-11 02:57:00,
2012-02-10 19:12:00,47.8,33.0,30.07,North,11,1.0,2.0,56,0.00,,,0.00,weatherlink.com 1.10,2012-02-11 03:12:00,
2012-02-10 19:27:00,48.1,35.0,30.07,North,349,0.0,2.0,60,0.00,,,0.00,weatherlink.com 1.10,2012-02-11 03:27:00,
2012-02-10 19:42:00,48.4,33.0,30.07,NNE,27,2.0,4.0,56,0.00,,,0.00,weatherlink.com 1.10,2012-02-11 03:42:00,
2012-02-10 19:57:00,48.9,33.0,30.06,NNW,343,0.0,2.0,54,0.00,,,0.00,weatherlink.com 1.10,2012-02-11 03:57:00,
2012-02-10 20:12:00,48.2,33.0,30.07,NNE,12,2.0,4.0,55,0.00,,,0.00,weatherlink.com 1.10,2012-02-11 04:12:00,
2012-02-10 20:27:00,48.1,32.0,30.06,NNE,16,1.0,2.0,54,0.00,,,0.00,weatherlink.com 1.10,2012-02-11 04:27:00,
2012-02-10 20:42:00,48.3,32.0,30.06,North,5,0.0,1.0,53,0.00,,,0.00,weatherlink.com 1.10,2012-02-11 04:42:00,
2012-02-10 20:57:00,49.3,31.0,30.06,North,351,0.0,3.0,49,0.00,,,0.00,weatherlink.com 1.10,2012-02-11 04:57:00,
2012-02-10 21:12:00,49.1,30.0,30.05,North,6,0.0,1.0,49,0.00,,,0.00,weatherlink.com 1.10,2012-02-11 05:12:00,
2012-02-10 21:27:00,48.7,30.0,30.05,NNE,18,2.0,2.0,48,0.00,,,0.00,weatherlink.com 1.10,2012-02-11 05:27:00,
2012-02-10 21:42:00,48.6,30.0,30.05,NNE,12,1.0,2.0,49,0.00,,,0.00,weatherlink.com 1.10,2012-02-11 05:42:00,
2012-02-10 21:57:00,48.6,30.0,30.05,WNW,290,0.0,2.0,48,0.00,,,0.00,weatherlink.com 1.10,2012-02-11 05:57:00,
2012-02-10 22:12:00,48.6,29.0,30.05,NW,320,0.0,1.0,47,0.00,,,0.00,weatherlink.com 1.10,2012-02-11 06:12:00,
2012-02-10 22:42:00,47.9,29.0,30.05,North,359,1.0,4.0,48,0.00,,,0.00,weatherlink.com 1.10,2012-02-11 06:42:00,
2012-02-10 22:57:00,46.6,31.0,30.04,North,9,0.0,2.0,54,0.00,,,0.00,weatherlink.com 1.10,2012-02-11 06:57:00,
2012-02-10 23:12:00,46.3,28.0,30.04,NNE,12,0.0,2.0,49,0.00,,,0.00,weatherlink.com 1.10,2012-02-11 07:12:00,
2012-02-10 23:27:00,46.2,26.0,30.05,SW,216,0.0,1.0,46,0.00,,,0.00,weatherlink.com 1.10,2012-02-11 07:27:00,
2012-02-10 23:42:00,45.1,38.0,30.05,North,10,3.0,5.0,76,0.00,,,0.00,weatherlink.com 1.10,2012-02-11 07:42:00,
2012-02-10 23:57:00,44.7,38.0,30.03,NNE,19,0.0,1.0,76,0.00,,,0.00,weatherlink.com 1.10,2012-02-11 07:57:00,